Location: Crescent
(42.8242°N, 73.7329°W)
Time: 21:56:35
(UTC+00:00)

A-11 Canister half - Visible Passes

Search period start: 15 July 2025 00:00
Search period end: 25 July 2025 00:00
Orbit: 1523 x 1684 km, 47.3° (Epoch: 14 July)

Date Brightness Start Highest point End Pass type
(mag) Time Alt. Az. Time Alt. Az. Time Alt. Az.
15 Jul 10.1 06:35:46 22° SSE 06:39:46 29° SE 06:47:39 10° ENE visible
15 Jul 9.2 08:34:02 11° SW 08:43:50 76° SSE 08:53:27 10° ENE visible
16 Jul 10.1 06:14:59 23° SSE 06:18:01 27° SE 06:25:44 10° ENE visible
16 Jul 9.2 08:13:15 15° SW 08:22:00 74° SSE 08:31:37 10° ENE visible
17 Jul 10.1 05:54:09 24° SSE 05:56:15 26° SE 06:03:46 10° ENE visible
17 Jul 9.2 07:52:25 19° SW 08:00:11 71° SSE 08:09:48 10° ENE visible
18 Jul 10.1 05:33:17 24° SE 05:34:29 24° SE 05:41:48 10° E visible
18 Jul 9.1 07:31:32 23° SW 07:38:21 69° SSE 07:47:59 10° ENE visible
19 Jul 10.2 05:12:21 23° SE 05:12:44 23° SE 05:19:49 10° E visible
19 Jul 9.1 07:10:36 28° SW 07:16:32 66° SE 07:26:09 10° ENE visible
20 Jul 10.2 04:51:23 21° ESE 04:51:23 21° ESE 04:57:48 10° E visible
20 Jul 9.1 06:49:38 32° SSW 06:54:43 64° SE 07:04:19 10° ENE visible
20 Jul 9.3 08:49:54 10° W 08:59:53 74° NNW 09:09:32 10° ENE visible
21 Jul 10.3 04:30:22 20° ESE 04:30:22 20° ESE 04:35:45 10° E visible
21 Jul 9.1 06:28:37 37° SSW 06:32:54 62° SE 06:42:29 10° ENE visible
21 Jul 9.3 08:27:59 10° W 08:38:00 75° NNW 08:47:41 10° ENE visible
22 Jul 10.4 04:09:18 18° ESE 04:09:18 18° ESE 04:13:41 10° E visible
22 Jul 9.2 06:07:32 41° SSW 06:11:04 59° SE 06:20:39 10° ENE visible
22 Jul 9.2 08:06:06 10° WSW 08:16:09 76° NNW 08:25:52 10° ENE visible
23 Jul 10.5 03:48:10 16° ESE 03:48:10 16° ESE 03:51:34 10° E visible
23 Jul 9.2 05:46:24 45° S 05:49:15 57° SE 05:58:48 10° ENE visible
23 Jul 9.2 07:44:38 12° WSW 07:54:16 77° NNW 08:04:01 10° ENE visible
24 Jul 10.6 03:26:58 14° ESE 03:26:58 14° ESE 03:29:25 10° E visible
24 Jul 9.2 05:25:12 47° S 05:27:26 55° SE 05:36:57 10° ENE visible
24 Jul 9.2 07:23:26 14° WSW 07:32:24 79° NNW 07:42:11 10° ENE visible
